Terminal Aerodrome Forecast
Issued by NWS Memphis, TN

Home | Current Version | Previous Version | Text Only | Print | Product List | Glossary On
Versions: 1 2 3 4 5 6 7 8 9 10 11 12
000
FTUS44 KMEG 020537
TAFJBR
TAF
KJBR 020537Z 0206/0306 20012KT P6SM BKN100
     FM020900 21010KT P6SM VCTS SCT040CB OVC100
      TEMPO 0210/0214 3SM TSRA BKN040CB
     FM022200 25010KT P6SM VCTS OVC040CB=

USA.gov is the U.S. government's official web portal to all federal, state and local government web resources and services.